{"data":{"norad_id":47400,"epoch":"2026-05-25T01:31:21.139104Z","epoch_age_seconds":66214,"freshness":"FRESH","line1":"1 47400U 21005BD  26145.06343911  .00000638  00000+0  32311-4 0  9998","line2":"2 47400  53.1610  18.3127 0001135  84.4387 275.6744 15.31699694295429","mean_motion":15.31699694,"eccentricity":0.0001135,"inclination_deg":53.161,"raan_deg":18.3127,"arg_perigee_deg":84.4387,"mean_anomaly_deg":275.6744,"bstar":3.2311e-5,"rev_number":29542,"period_min":94.013206742862,"perigee_km":469.96355975339,"apogee_km":471.51825503837,"semimajor_km":6848.8779073959,"source":"CELESTRAK","updated_at":"2026-05-25T13:38:16.554459Z"}}